Location: Pinawa
(50.1500°N, 95.8830°W)
Time: 09:09:00
(UTC-05:00)

ISS - All Passes

Search period start: 19 April 2015 00:00
Search period end: 29 April 2015 00:00
Orbit: 396 x 403 km, 51.6° (Epoch: 19 April)

Date Brightness Start Highest point End Pass type
(mag) Time Alt. Az. Time Alt. Az. Time Alt. Az.
19 Apr - 16:10:37 10° SW 16:13:44 43° SSE 16:16:52 10° E daylight
19 Apr - 17:46:46 10° W 17:50:03 71° N 17:53:19 10° ENE daylight
19 Apr - 19:23:16 10° WNW 19:26:33 77° N 19:29:50 10° E daylight
19 Apr - 20:59:45 10° W 21:02:48 35° SSW 21:05:48 10° SE visible
20 Apr - 15:17:04 10° SSW 15:19:53 27° SSE 15:22:45 10° E daylight
20 Apr - 16:52:46 10° WSW 16:56:02 87° NNW 16:59:19 10° ENE daylight
20 Apr - 18:29:17 10° WNW 18:32:33 67° N 18:35:48 10° E daylight
20 Apr - 20:05:42 10° WNW 20:08:54 55° SSW 20:12:06 10° SE daylight
20 Apr - 21:43:10 10° WSW 21:44:45 13° SW 21:46:15 10° SSW visible
21 Apr - 14:23:52 10° S 14:26:04 17° SE 14:28:20 10° E daylight
21 Apr - 15:58:46 10° WSW 16:02:01 69° SSE 16:05:17 10° ENE daylight
21 Apr - 17:35:12 10° W 17:38:27 64° N 17:41:43 10° E daylight
21 Apr - 19:11:39 10° WNW 19:14:56 80° SSW 19:18:11 10° ESE daylight
21 Apr - 20:48:24 10° W 20:50:57 21° SW 20:53:28 10° SSE daylight
22 Apr - 13:31:51 10° SE 13:32:15 10° SE 13:32:45 10° SE daylight
22 Apr - 15:04:52 10° SW 15:08:01 46° SSE 15:11:10 10° ENE daylight
22 Apr - 16:41:04 10° W 16:44:19 70° N 16:47:36 10° ENE daylight
22 Apr - 18:17:33 10° WNW 18:20:50 79° NNE 18:24:06 10° E daylight
22 Apr - 19:54:03 10° W 19:57:02 33° SSW 20:00:00 10° SE daylight
23 Apr - 14:11:07 10° SSW 14:14:00 29° SSE 14:16:55 10° E daylight
23 Apr - 15:46:53 10° WSW 15:50:10 84° N 15:53:26 10° ENE daylight
23 Apr - 17:23:23 10° WNW 17:26:39 68° N 17:29:55 10° E daylight
23 Apr - 18:59:48 10° WNW 19:03:00 51° SSW 19:06:10 10° SE daylight
23 Apr - 20:37:30 10° WSW 20:38:48 12° SW 20:40:01 10° SSW daylight
24 Apr - 13:17:41 10° S 13:20:01 18° SE 13:22:23 10° E daylight
24 Apr - 14:52:44 10° WSW 14:55:59 73° SSE 14:59:14 10° ENE daylight
24 Apr - 16:29:10 10° W 16:32:25 64° N 16:35:40 10° E daylight
24 Apr - 18:05:35 10° WNW 18:08:51 76° SSW 18:12:06 10° ESE daylight
24 Apr - 19:42:24 10° W 19:44:50 19° SW 19:47:14 10° S daylight
25 Apr - 12:25:04 10° SSE 12:26:01 11° SE 12:27:03 10° ESE daylight
25 Apr - 13:58:38 10° SW 14:01:47 49° SSE 14:04:58 10° ENE daylight
25 Apr - 15:34:51 10° W 15:38:07 68° N 15:41:22 10° ENE daylight
25 Apr - 17:11:20 10° WNW 17:14:36 82° N 17:17:52 10° ESE daylight
25 Apr - 18:47:50 10° W 18:50:46 31° SSW 18:53:41 10° SSE daylight
26 Apr - 13:04:41 10° SSW 13:07:37 31° SSE 13:10:34 10° E daylight
26 Apr - 14:40:31 10° W 14:43:47 81° NNW 14:47:03 10° ENE daylight
26 Apr - 16:17:01 10° WNW 16:20:16 69° N 16:23:31 10° E daylight
26 Apr - 17:53:25 10° WNW 17:56:35 48° SSW 17:59:43 10° SE daylight
26 Apr - 19:31:25 10° WSW 19:32:20 11° SW 19:33:11 10° SSW daylight
27 Apr - 12:11:01 10° S 12:13:26 20° SE 12:15:54 10° E daylight
27 Apr - 13:46:11 10° WSW 13:49:25 77° SSE 13:52:41 10° ENE daylight
27 Apr - 15:22:37 10° W 15:25:51 64° N 15:29:06 10° E daylight
27 Apr - 16:59:01 10° WNW 17:02:16 72° SSW 17:05:31 10° ESE daylight
27 Apr - 18:35:53 10° W 18:38:14 18° SW 18:40:31 10° S daylight
28 Apr - 11:18:02 10° SSE 11:19:17 12° SE 11:20:36 10° ESE daylight
28 Apr - 12:51:54 10° SW 12:55:05 52° SSE 12:58:15 10° ENE daylight
28 Apr - 14:28:08 10° W 14:31:24 67° N 14:34:39 10° ENE daylight
28 Apr - 16:04:36 10° WNW 16:07:52 84° NNE 16:11:08 10° ESE daylight
28 Apr - 17:41:07 10° W 17:44:00 29° SSW 17:46:52 10° SSE daylight
